Trinity Center, CA

5:07 AM PST on February 14, 2016 (GMT -0800)
Trinity Center

Weather History for KO86 - May, 2013

Change the Weather History Date:

Friday, May 24, 2013

  Actual Average (KMHS) Record (KMHS)
Temperature  
Mean Temperature 53 °F 56 °F  
Max Temperature 69 °F 71 °F 90 °F (1992)
Min Temperature 37 °F 42 °F 26 °F (1953)
Degree Days  
Heating Degree Days 12 9  
Month to date heating degree days 278  
Since 1 July heating degree days 5493  
Cooling Degree Days 0 0  
Month to date cooling degree days 0  
Year to date cooling degree days 0  
Growing Degree Days 3 (Base 50)    
Moisture  
Dew Point 32 °F    
Average Humidity 51    
Maximum Humidity 81    
Minimum Humidity 20    
Precipitation  
Precipitation 0.00 in 0.07 in 0.94 in (1960)
Month to date precipitation 1.73  
Year to date precipitation 24.91  
Sea Level Pressure  
Sea Level Pressure 30.03 in    
Wind  
Wind Speed 6 mph (SW)    
Max Wind Speed 13 mph    
Max Gust Speed 18 mph    
Visibility 10 miles    
Events      
T = Trace of Precipitation, MM = Missing Value Source: NWS Daily Summary

Daily Weather History Graph

Daily Weather History Graph

Search for Another Location

Airport or City:

Trip Planner

Search our weather history database for the weather conditions in past years. The results will help you decide how hot, cold, wet, or windy it might be!

Date:

Astronomy

May. 24, 2013 Rise Set
Actual Time 5:45 AM PDT 8:30 PM PDT
Civil Twilight 5:13 AM PDT 9:02 PM PDT
Nautical Twilight 4:32 AM PDT 9:43 PM PDT
Astronomical Twilight 3:46 AM PDT 10:29 PM PDT
Moon 8:18 PM PDT (5/24) 5:22 AM PDT (5/24)
Length of Visible Light 15h 49m
Length of Day
14h 45m
Full, 100% of the Moon is Illuminated
May 24
Full
May 24
Full
May 31
Last Quarter
Jun 8
New
Jun 16
First Quarter

Hourly Weather History & Observations

Time (PDT) Temp. Windchill Dew Point Humidity Pressure Visibility Wind Dir Wind Speed Gust Speed Precip Events Conditions
12:10 AM 46.4 °F 43.5 °F 33.8 °F 62% 30.06 in 10.0 mi West 5.8 mph - N/A   Clear
12:30 AM 44.6 °F 41.4 °F 33.8 °F 66% 30.06 in 10.0 mi West 5.8 mph - N/A   Clear
12:50 AM 44.6 °F 41.4 °F 33.8 °F 66% 30.06 in 10.0 mi West 5.8 mph - N/A   Clear
1:10 AM 42.8 °F 39.3 °F 33.8 °F 70% 30.06 in 10.0 mi West 5.8 mph - N/A   Clear
1:30 AM 42.8 °F 39.3 °F 33.8 °F 70% 30.06 in 10.0 mi West 5.8 mph - N/A   Clear
1:50 AM 41.0 °F 39.0 °F 32.0 °F 70% 30.06 in 10.0 mi WSW 3.5 mph - N/A   Clear
2:10 AM 41.0 °F 38.0 °F 32.0 °F 70% 30.06 in 10.0 mi West 4.6 mph - N/A   Clear
2:30 AM 41.0 °F 38.0 °F 32.0 °F 70% 30.06 in 10.0 mi West 4.6 mph - N/A   Clear
2:50 AM 41.0 °F 38.0 °F 32.0 °F 70% 30.06 in 10.0 mi West 4.6 mph - N/A   Clear
3:10 AM 39.2 °F 35.0 °F 32.0 °F 75% 30.06 in 10.0 mi West 5.8 mph - N/A   Clear
3:30 AM 39.2 °F 34.2 °F 32.0 °F 75% 30.06 in 10.0 mi West 6.9 mph - N/A   Clear
3:50 AM 39.2 °F 35.9 °F 32.0 °F 75% 30.06 in 10.0 mi West 4.6 mph - N/A   Clear
4:10 AM 39.2 °F 35.0 °F 32.0 °F 75% 30.07 in 10.0 mi West 5.8 mph - N/A   Clear
4:30 AM 37.4 °F 34.9 °F 32.0 °F 81% 30.07 in 10.0 mi West 3.5 mph - N/A   Clear
4:50 AM 37.4 °F 33.8 °F 32.0 °F 81% 30.07 in 10.0 mi West 4.6 mph - N/A   Clear
5:10 AM 37.4 °F 32.8 °F 32.0 °F 81% 30.07 in 10.0 mi West 5.8 mph - N/A   Clear
5:30 AM 37.4 °F 32.8 °F 32.0 °F 81% 30.08 in 10.0 mi West 5.8 mph - N/A   Clear
5:50 AM 37.4 °F 33.8 °F 32.0 °F 81% 30.08 in 10.0 mi West 4.6 mph - N/A   Partly Cloudy
6:10 AM 37.4 °F 33.8 °F 32.0 °F 81% 30.09 in 10.0 mi West 4.6 mph - N/A   Mostly Cloudy
6:30 AM 37.4 °F 34.9 °F 32.0 °F 81% 30.09 in 10.0 mi West 3.5 mph - N/A   Scattered Clouds
6:50 AM 39.2 °F - 32.0 °F 75% 30.09 in 10.0 mi Calm Calm - N/A   Scattered Clouds
7:10 AM 41.0 °F - 33.8 °F 76% 30.09 in 10.0 mi Calm Calm - N/A   Mostly Cloudy
7:30 AM 42.8 °F - 35.6 °F 76% 30.09 in 10.0 mi Calm Calm - N/A   Partly Cloudy
7:50 AM 44.6 °F - 37.4 °F 76% 30.09 in 10.0 mi Calm Calm - N/A   Clear
8:10 AM 44.6 °F - 37.4 °F 76% 30.08 in 10.0 mi Calm Calm - N/A   Clear
8:30 AM 46.4 °F - 37.4 °F 71% 30.08 in 10.0 mi Calm Calm - N/A   Clear
8:50 AM 46.4 °F 45.2 °F 37.4 °F 71% 30.07 in 10.0 mi East 3.5 mph - N/A   Clear
9:10 AM 48.2 °F - 37.4 °F 66% 30.07 in 10.0 mi East 3.5 mph - N/A   Clear
9:30 AM 50.0 °F - 37.4 °F 62% 30.07 in 10.0 mi East 3.5 mph - N/A   Clear
9:50 AM 50.0 °F - 35.6 °F 58% 30.06 in 10.0 mi SSE 4.6 mph - N/A   Clear
10:10 AM 53.6 °F - 37.4 °F 54% 30.06 in 10.0 mi East 3.5 mph - N/A   Clear
10:30 AM 53.6 °F - 37.4 °F 54% 30.05 in 10.0 mi East 3.5 mph - N/A   Clear
10:50 AM 57.2 °F - 39.2 °F 51% 30.04 in 10.0 mi ESE 3.5 mph - N/A   Clear
11:10 AM 57.2 °F - 37.4 °F 48% 30.04 in 10.0 mi SSE 6.9 mph - N/A   Clear
11:30 AM 59.0 °F - 37.4 °F 45% 30.03 in 10.0 mi SSE 8.1 mph - N/A   Clear
11:50 AM 62.6 °F - 35.6 °F 37% 30.02 in 10.0 mi SSE 9.2 mph - N/A   Clear
12:10 PM 62.6 °F - 32.0 °F 32% 30.01 in 10.0 mi SSE 10.4 mph - N/A   Clear
12:30 PM 64.4 °F - 33.8 °F 32% 30.01 in 10.0 mi South 6.9 mph - N/A   Clear
12:50 PM 66.2 °F - 32.0 °F 28% 30.00 in 10.0 mi SSE 5.8 mph - N/A   Clear
1:10 PM 66.2 °F - 32.0 °F 28% 30.00 in 10.0 mi SSE 8.1 mph - N/A   Clear
1:30 PM 68.0 °F - 30.2 °F 24% 29.99 in 10.0 mi SSE 8.1 mph - N/A   Clear
1:50 PM 68.0 °F - 32.0 °F 26% 29.98 in 10.0 mi SSE 11.5 mph - N/A   Clear
2:10 PM 68.0 °F - 28.4 °F 23% 29.98 in 10.0 mi SSE 10.4 mph - N/A   Clear
2:30 PM 68.0 °F - 30.2 °F 24% 29.98 in 10.0 mi SSW 6.9 mph 16.1 mph N/A   Clear
2:50 PM 68.0 °F - 28.4 °F 23% 29.98 in 10.0 mi South 8.1 mph 17.3 mph N/A   Clear
3:10 PM 68.0 °F - 26.6 °F 21% 29.98 in 10.0 mi SW 8.1 mph - N/A   Clear
3:30 PM 68.0 °F - 24.8 °F 20% 29.98 in 10.0 mi SW 6.9 mph - N/A   Clear
3:50 PM 68.0 °F - 28.4 °F 23% 29.97 in 10.0 mi SSE 11.5 mph 16.1 mph N/A   Clear
4:10 PM 69.8 °F - 26.6 °F 20% 29.97 in 10.0 mi SSE 9.2 mph - N/A   Clear
4:30 PM 69.8 °F - 26.6 °F 20% 29.97 in 10.0 mi South 11.5 mph - N/A   Clear
4:50 PM 68.0 °F - 26.6 °F 21% 29.96 in 10.0 mi South 10.4 mph 17.3 mph N/A   Clear
5:10 PM 68.0 °F - 24.8 °F 20% 29.96 in 10.0 mi SSW 12.7 mph 18.4 mph N/A   Clear
5:30 PM 68.0 °F - 26.6 °F 21% 29.96 in 10.0 mi South 5.8 mph - N/A   Clear
5:50 PM 68.0 °F - 24.8 °F 20% 29.96 in 10.0 mi South 9.2 mph - N/A   Clear
6:10 PM 66.2 °F - 28.4 °F 24% 29.96 in 10.0 mi South 12.7 mph - N/A   Clear
6:30 PM 66.2 °F - 30.2 °F 26% 29.96 in 10.0 mi South 11.5 mph - N/A   Clear
6:50 PM 66.2 °F - 30.2 °F 26% 29.96 in 10.0 mi South 11.5 mph - N/A   Clear
7:10 PM 64.4 °F - 28.4 °F 26% 29.96 in 10.0 mi South 11.5 mph - N/A   Clear
7:30 PM 64.4 °F - 28.4 °F 26% 29.97 in 10.0 mi Calm Calm - N/A   Clear
7:50 PM 62.6 °F - 28.4 °F 27% 29.98 in 10.0 mi Calm Calm - N/A   Clear
8:10 PM 60.8 °F - 32.0 °F 34% 29.98 in 10.0 mi WSW 5.8 mph - N/A   Clear
8:30 PM 59.0 °F - 32.0 °F 36% 29.99 in 10.0 mi Calm Calm - N/A   Clear
8:50 PM 57.2 °F - 32.0 °F 38% 29.99 in 10.0 mi Calm Calm - N/A   Clear
9:10 PM 57.2 °F - 32.0 °F 38% 30.00 in 10.0 mi WNW 3.5 mph - N/A   Clear
9:30 PM 55.4 °F - 33.8 °F 44% 30.01 in 10.0 mi WNW 5.8 mph - N/A   Clear
9:50 PM 53.6 °F - 35.6 °F 51% 30.02 in 10.0 mi WNW 6.9 mph - N/A   Clear
10:10 PM 51.8 °F - 35.6 °F 54% 30.02 in 10.0 mi West 4.6 mph - N/A   Clear
10:30 PM 50.0 °F - 35.6 °F 58% 30.03 in 10.0 mi West 5.8 mph - N/A   Clear
10:50 PM 50.0 °F - 35.6 °F 58% 30.03 in 10.0 mi West 5.8 mph - N/A   Clear
11:10 PM 48.2 °F - 35.6 °F 62% 30.03 in 10.0 mi West 5.8 mph - N/A   Clear
11:30 PM 48.2 °F - 35.6 °F 62% 30.03 in 10.0 mi West 5.8 mph - N/A   Clear
11:50 PM 46.4 °F 43.5 °F 35.6 °F 66% 30.04 in 10.0 mi West 5.8 mph - N/A   Clear